Zurück zum Katalog

CZ-6A DEB

AktivPO
NORAD 61137·DEBRIS·🇨🇳 China

Gestartet Aug 6, 2024 von Taiyuan Satellite Launch Center

Loading…

Nächste Überflüge (nächste 24 Stunden)

TLE

AktuellSource: Space-Track

Epoche: Sep 13, 2026, 11:35 UTC

1 61137U 24140QF  26256.48275480  .00001201  00000-0  70959-3 0  9995
2 61137  88.9799 266.0779 0144538 357.6564   2.3921 14.02153572105326

Verfolge CZ-6A DEB in Echtzeit mit AllMySat

Download on the App Store